Regional Weather Roundup
Issued by NWS Northern Indiana

Home | Current Version | Previous Version | Graphics & Text | Print | Product List | Glossary On
Versions: 1 2 3 4 5 6 7 8 9 10 11 12 13 14 15 16 17 18 19 20 21 22 23 24 25 26 27 28 29 30 31 32 33 34 35 36 37 38 39 40 41 42 43 44 45 46 47 48 49 50
000
ASUS43 KIWX 250810
RWRIWX

KIWX WEATHER ROUNDUP
NATIONAL WEATHER SERVICE NORTHERN INDIANA
400 AM EDT MON JUL 25 2016

NOTE: "FAIR" INDICATES FEW OR NO CLOUDS BELOW 12,000 FEET WITH NO
SIGNIFICANT WEATHER AND/OR OBSTRUCTIONS TO VISIBILITY.

* THESE STATIONS ARE NOT UNDER NWS QUALITY CONTROL. THEY ALSO MAY NOT
  REPORT WEATHER SUCH AS PRECIPITATION OR FOG.

INZ001>027-250900-
NORTHERN INDIANA

CITY           SKY/WX    TMP DP  RH WIND       PRES   REMARKS
GARY*          CLOUDY    74  73  96 W7        29.96F
VALPARAISO     CLOUDY    70  67  90 W13       29.96S
MICHIGAN CITY* CLOUDY    72  66  83 W3        29.96R
LAPORTE*       CLOUDY    72  72 100 W7        29.95F
KNOX*          CLOUDY    68  66  94 W6        29.93F
SOUTH BEND     CLOUDY    69  68  96 W7        29.94S
GOSHEN         CLOUDY    71  67  87 S6        29.93F
MONTICELLO*    LGT RAIN  70  66  86 CALM      29.94F
LOGANSPORT*    LGT RAIN  70  66  88 SW7       29.96F
ROCHESTER*     DRIZZLE   72  72 100 S7        29.93F
WARSAW*        LGT RAIN  70  68  94 CALM      29.94F
ANGOLA*        CLEAR     72  64  78 SW6       29.92S
FORT WAYNE     CLOUDY    72  67  84 SW6       29.94F
HUNTINGTON*    CLOUDY   N/A N/A N/A SW3       29.95F
PERU/GRISSOM   CLOUDY    71  68  89 W8        29.94F
MARION*        CLOUDY    69  66  91 SW3       29.97F

$$
INZ028>050-250900-
CENTRAL INDIANA

CITY           SKY/WX    TMP DP  RH WIND       PRES   REMARKS
LAFAYETTE      LGT RAIN  70  70 100 W5        29.97F
KOKOMO*        CLOUDY    72  63  73 W10       29.97F
MUNCIE*        CLOUDY    76  66  71 SW8       29.97F
INDIANAPOLIS   CLOUDY    74  67  78 W9        30.00F

$$
MIZ043>046-050>051-056>058-064>065-071>073-077>080-250900-
SOUTHWEST LOWER MICHIGAN

CITY           SKY/WX    TMP DP  RH WIND       PRES   REMARKS
BATTLE CREEK   CLOUDY    71  71 100 NW8       29.92F
BENTON HARBOR  CLOUDY    75  69  81 W16       29.93F
COLDWATER*     CLOUDY    71  69  95 SW6       29.93R
HOLLAND        CLOUDY    75  70  84 SW12      29.92F
GRAND RAPIDS   CLOUDY    76  68  76 W10       29.91S
KALAMAZOO      CLOUDY    74  68  81 NW13      29.91F
STURGIS*       CLOUDY    70  68  94 NW7       29.92S
THREE RIVERS*  FAIR      72  69  90 SW5       29.93R

$$
OHZ001>008-015>018-024>025-250900-
NORTHWEST OHIO

CITY           SKY/WX    TMP DP  RH WIND       PRES   REMARKS
WAUSEON*       CLOUDY    75  72  88 N7G17     29.90F
DEFIANCE       CLOUDY    79  65  62 VRB6      29.93R
FINDLAY        CLOUDY    80  73  79 SW5       29.92F
TOLEDO EXPRESS LGT RAIN  76  75  97 W17G33    29.92R
TOLEDO METCALF CLOUDY    80  77  90 W10       29.93R
LIMA           MOCLDY    78  76  93 SW7       29.94F

$$
AND FOR LAKE MICHIGAN COASTAL AND OPEN LAKE BUOY OBSERVATIONS

STATION/POSITION TEMP    WIND        PRES    VSBY  WAVE
                 AIR SEA DIR/SP/G                  HT/PER
                 (F)     (DEG/KT/KT) (MB)    (MI)  (FT/S)
CALUMET HARBOR    73     230/  8/ 10 1014.4R
MICHIGAN CITY     73     210/ 10/ 12   N/A
BURNS HARBOR      74     180/  5/ 20 1014.6S
SAINT JOSEPH      75     260/ 11/ 14 1014.2F
SOUTH LAKE BUOY   74 72  230/ 10/ 12 1012.6S         2/ 5
4 MI NW BRIDGMAN  74 73  270/ 16/ 21 1013.2F         4/ 4
MICHIGAN CITY     74 74  280/ 14/ 19   N/A           2/ 4

$$
&&



USA.gov is the U.S. government's official web portal to all federal, state and local government web resources and services.